TimeEST,TemperatureF,Dew PointF,Humidity,Sea Level PressureIn,VisibilityMPH,Wind Direction,Wind SpeedMPH,Gust SpeedMPH,PrecipitationIn,Events,Conditions,WindDirDegrees,DateUTC
12:53 AM,32.0,25.0,75,30.10,10.0,North,4.6,-,N/A,,Overcast,360,2013-03-07 05:53:00
1:53 AM,32.0,25.0,75,30.10,10.0,North,5.8,-,N/A,,Overcast,360,2013-03-07 06:53:00
2:53 AM,30.9,25.0,79,30.10,10.0,North,4.6,-,N/A,,Overcast,350,2013-03-07 07:53:00
3:53 AM,30.9,25.0,79,30.09,10.0,NNW,5.8,-,N/A,,Overcast,340,2013-03-07 08:53:00
4:53 AM,30.0,25.0,82,30.10,10.0,NNW,4.6,-,N/A,,Overcast,330,2013-03-07 09:53:00
5:53 AM,30.9,25.0,79,30.11,10.0,NNE,3.5,-,N/A,,Overcast,20,2013-03-07 10:53:00
6:06 AM,30.9,26.1,82,30.06,10.0,North,4.6,-,N/A,,Overcast,360,2013-03-07 11:06:00
6:36 AM,30.0,26.1,85,30.07,10.0,NNW,4.6,-,N/A,,Overcast,340,2013-03-07 11:36:00
6:53 AM,30.0,26.1,85,30.12,10.0,NNW,4.6,-,N/A,,Overcast,340,2013-03-07 11:53:00
7:53 AM,30.9,26.1,82,30.14,9.0,NNW,5.8,-,N/A,,Overcast,330,2013-03-07 12:53:00
8:04 AM,30.9,26.1,82,30.09,9.0,NW,6.9,-,N/A,,Overcast,320,2013-03-07 13:04:00
8:12 AM,30.9,26.1,82,30.09,9.0,NNW,5.8,-,N/A,,Overcast,330,2013-03-07 13:12:00
8:53 AM,32.0,26.1,79,30.16,5.0,NNW,8.1,-,0.00,Snow,Light Snow,330,2013-03-07 13:53:00
9:00 AM,32.0,27.0,82,30.10,5.0,North,6.9,-,0.00,Snow,Light Snow,350,2013-03-07 14:00:00
9:53 AM,33.1,27.0,78,30.17,5.0,North,4.6,-,0.00,Snow,Light Snow,350,2013-03-07 14:53:00
10:11 AM,33.1,27.0,78,30.11,1.8,NNW,4.6,-,0.00,Snow,Light Snow,330,2013-03-07 15:11:00
10:27 AM,32.0,27.0,82,30.11,2.5,NW,6.9,-,0.00,Snow,Light Snow,320,2013-03-07 15:27:00
10:35 AM,32.0,27.0,82,30.12,3.0,NW,8.1,-,0.00,Snow,Light Snow,320,2013-03-07 15:35:00
10:53 AM,33.1,27.0,78,30.17,7.0,NW,5.8,-,0.00,Snow,Light Snow,320,2013-03-07 15:53:00
11:29 AM,34.0,26.1,73,30.12,10.0,NW,9.2,-,0.00,,Overcast,310,2013-03-07 16:29:00
11:53 AM,34.0,26.1,73,30.18,8.0,NNW,10.4,-,0.00,Snow,Light Snow,330,2013-03-07 16:53:00
12:53 PM,34.0,26.1,73,30.17,10.0,NW,11.5,-,0.00,,Overcast,320,2013-03-07 17:53:00
1:53 PM,34.0,26.1,73,30.17,10.0,NNW,13.8,-,N/A,,Overcast,330,2013-03-07 18:53:00
2:53 PM,33.1,26.1,75,30.18,10.0,NNW,11.5,-,N/A,,Overcast,340,2013-03-07 19:53:00
3:12 PM,33.1,26.1,75,30.12,10.0,NNW,12.7,-,N/A,,Overcast,330,2013-03-07 20:12:00
3:53 PM,32.0,26.1,79,30.19,10.0,NW,13.8,-,N/A,,Overcast,320,2013-03-07 20:53:00
4:53 PM,32.0,26.1,79,30.20,6.0,NNW,13.8,-,0.00,Snow,Light Snow,330,2013-03-07 21:53:00
5:02 PM,32.0,25.0,75,30.14,4.0,NW,13.8,-,0.00,Snow,Light Snow,320,2013-03-07 22:02:00
5:53 PM,32.0,25.0,75,30.21,9.0,NW,12.7,-,0.00,,Overcast,320,2013-03-07 22:53:00
6:53 PM,32.0,25.0,75,30.23,10.0,NW,9.2,-,N/A,,Overcast,310,2013-03-07 23:53:00
7:53 PM,30.9,24.1,76,30.23,10.0,NNW,8.1,-,N/A,,Overcast,330,2013-03-08 00:53:00
8:29 PM,30.9,23.0,72,30.17,10.0,NNW,6.9,-,N/A,,Overcast,330,2013-03-08 01:29:00
8:49 PM,30.2,23.0,75,30.17,10.0,NNW,9.2,-,N/A,,Overcast,330,2013-03-08 01:49:00
8:53 PM,30.9,23.0,72,30.23,10.0,NNW,9.2,-,N/A,,Overcast,330,2013-03-08 01:53:00
9:22 PM,30.0,23.0,75,30.17,10.0,North,8.1,-,N/A,,Overcast,360,2013-03-08 02:22:00
9:53 PM,30.0,23.0,75,30.23,8.0,NNW,8.1,-,0.00,Snow,Light Snow,330,2013-03-08 02:53:00
10:53 PM,28.0,21.9,78,30.23,10.0,NNW,5.8,-,0.00,,Scattered Clouds,330,2013-03-08 03:53:00